Cloud_Cover
100 100 89 100 100 100 100 85 94 45 72 100 61 74 83 95 100 65 100 88 96 100 100 100 100 50 100 100 97 68 6 5 6 56 86 100 100 81 17 28 20 65 85 5 5 5 5 5 5
100 100 100 100 100 100 78 75 80 76 32 8 28 76 100 100 100 100 100 100 100 98 73 83 100 100 100 100 58 8 13 5 5 6 5 38 74 77 100 85 11 7 100 5 5 5 5 5 5
100 100 100 100 100 100 100 92 73 5 60 48 36 52 77 96 100 100 89 65 52 85 80 100 100 100 100 52 6 5 10 5 5 5 52 14 100 100 100 100 8 50 98 24 5 42 5 5 5
100 100 100 100 100 100 100 15 42 25 35 39 100 100 46 100 74 52 71 74 99 99 96 100 100 100 5 5 5 5 5 5 5 5 5 35 48 5 6 15 92 21 6 5 5 5 6 5 5
100 100 100 100 100 100 85 100 100 100 14 92 74 69 89 100 93 62 98 100 100 88 85 81 57 100 6 8 5 6 5 5 5 5 5 4 1 6 6 5 5 5 5 5 5 5 5 5 5
100 100 100 100 100 100 100 29 100 88 17 73 100 86 92 100 92 90 74 90 90 63 76 45 36 55 5 5 5 11 10 8 5 5 5 5 5 5 5 5 5 5 5 5 5 5 22 87 88
100 100 100 100 100 100 75 49 97 100 95 80 100 97 86 100 78 93 100 100 72 39 5 5 69 5 5 5 8 5 5 5 5 5 5 3 5 7 10 13 5 5 78 99 100 100 100 65 30
100 100 100 100 100 100 96 84 80 100 100 100 100 100 100 100 80 81 93 100 69 50 19 5 41 5 5 5 5 5 5 5 5 0 59 0 17 100 100 34 1 0 0 0 0 2 5 5 5
94 100 83 100 100 90 100 3 59 50 100 100 100 100 100 96 40 72 57 53 18 12 18 18 6 100 3 5 0 5 5 5 1 0 85 9 98 80 46 56 12 5 4 3 11 2 10 10 100
99 100 91 48 51 64 100 85 1 63 100 100 99 44 68 54 7 60 69 14 23 40 5 22 0 11 4 1 1 4 1 0 0 27 76 100 100 0 2 64 3 0 23 49 100 100 70 99 100
100 86 100 58 74 100 9 10 24 34 89 76 58 38 55 5 6 9 40 5 5 5 28 45 5 0 7 5 4 90 26 94 9 95 69 55 14 81 0 38 56 10 21 82 43 100 33 54 100
9 4 87 8 3 94 56 75 5 100 100 14 5 36 5 5 5 56 5 5 5 25 100 9 5 2 5 5 100 0 100 100 90 0 0 58 0 100 60 0 97 2 100 41 8 11 93 100 65
69 94 2 1 81 6 2 46 4 3 62 6 7 20 11 5 44 84 58 16 14 13 49 36 1 0 5 64 81 81 80 90 80 96 2 0 69 100 100 94 56 0 5 7 0 2 0 7 99
92 28 72 66 0 0 55 0 20 0 0 1 4 28 10 5 67 7 26 17 3 84 5 0 0 0 4 2 0 65 10 0 17 2 0 1 0 45 0 91 38 26 0 0 0 0 0 0 7
51 20 5 71 3 61 100 18 100 0 0 0 3 20 10 3 8 41 6 86 26 5 5 1 0 0 0 0 0 1 1 97 0 0 0 0 0 17 82 26 92 60 0 97 4 2 92 95 2
100 77 98 19 13 44 0 85 100 24 0 0 0 8 36 0 0 3 0 3 5 15 4 5 2 7 0 0 0 30 100 0 70 0 0 0 0 63 25 24 0 0 33 0 0 0 0 67 28
99 98 26 84 100 36 17 46 97 96 16 0 0 3 100 79 0 0 1 0 5 29 4 5 94 0 10 0 0 43 1 77 58 100 0 0 0 68 32 3 0 1 20 8 0 0 2 8 0
91 97 95 82 100 51 32 2 5 79 15 3 0 12 56 85 100 78 84 3 0 0 3 0 100 0 0 0 0 0 0 7 0 10 0 0 0 1 67 92 6 0 10 0 1 0 0 0 0
18 82 100 99 70 60 36 11 0 50 21 0 0 0 1 8 100 100 100 57 0 33 0 0 10 0 0 0 0 1 99 6 99 2 0 0 0 0 0 12 65 1 37 0 0 0 0 0 0
64 100 100 100 100 100 10 65 0 1 0 0 0 0 0 0 85 93 68 59 48 0 0 0 0 0 0 0 0 13 92 98 51 17 0 0 0 0 0 0 0 0 0 0 0 0 0 0 42
97 100 97 82 100 94 16 1 94 2 0 0 0 0 0 0 2 23 76 100 100 0 0 0 0 0 0 0 0 1 0 1 0 0 0 0 0 0 0 0 0 0 0 0 0 0 0 0 0
88 98 71 100 84 64 70 85 100 25 0 0 0 0 0 0 22 0 0 63 100 24 0 0 0 0 0 0 14 0 0 0 0 0 0 0 0 0 0 0 0 0 0 34 0 0 0 0 0
0 11 93 47 49 6 9 8 82 35 0 0 0 0 0 0 0 0 0 6 100 59 0 0 0 0 0 0 2 0 0 0 0 0 0 0 0 0 0 0 0 0 0 0 0 0 0 0 0
0 5 98 62 80 20 1 28 75 90 48 4 0 0 0 0 0 0 0 0 77 27 0 0 0 0 0 0 0 0 0 0 0 0 0 0 0 0 0 0 0 0 0 7 0 5 4 0 0
0 0 8 40 55 5 0 54 96 100 100 100 19 0 0 0 0 0 0 0 0 15 0 0 0 0 0 0 0 0 0 0 0 0 0 0 0 0 0 0 3 0 10 2 2 5 6 5 0
0 0 8 6 86 3 80 91 97 77 100 100 100 0 0 0 0 0 0 0 0 0 0 0 0 0 0 0 0 0 0 0 0 0 0 0 0 0 0 0 1 5 0 5 0 16 7 10 2
0 0 1 48 97 100 58 85 42 100 100 100 64 0 0 0 0 0 0 0 0 0 0 0 0 0 0 0 0 0 0 0 0 0 0 0 0 0 0 0 4 76 5 6 26 5 5 49 23
0 0 0 9 4 86 4 100 40 84 89 12 22 0 0 0 0 0 0 0 0 0 0 0 0 0 0 0 0 0 0 0 0 0 0 0 0 0 0 0 5 4 8 70 5 8 5 42 81
0 0 0 1 2 74 98 100 100 99 9 26 41 0 0 0 0 0 0 0 0 0 0 0 0 0 0 0 0 0 0 0 0 0 0 0 0 0 0 0 38 37 58 98 0 1 5 18 83
0 0 0 0 1 6 100 100 100 13 40 100 0 0 0 0 0 0 0 0 0 0 0 0 0 0 0 0 0 0 0 0 0 0 0 0 0 2 5 4 58 100 97 98 0 0 5 6 5